DELTA 1 DEB, 3974

Orbit data source: Space-Track

DELTA 1 DEB, 3974 is space debris in SSO originally from a launch on Fri, 16 Aug 1968 UTC launched from the Air Force Western Test Range (AFWTR). Debris objects in space refer to the collection of defunct objects orbiting the Earth. Examples of debris include non-operational satellites, rocket bodies, and fragments generated from explosions, collisions, or faulty payload assembly.

Loading next visibility...
DELTA 1 DEB details
Identifier
3974, 1968-069E
Orbit
SSO
Last TLE update1 day ago
Origin
Flag of USGSFC (US)
ManufacturerUnknown
MissionSpacecraft
Bus & MotorUnknown
MassUnknown
Launch date (UTC)
1968-08-16 (56 years ago)
Launch vehicleUnknown
Launch site
Air Force Western Test Range (AFWTR)
Object type
Payload
Rocket body
Debris
Shape & HBRUnknown
Radar Cross SectionSmall (<0.1 m²)

Expand to show TLE details & history

TLE from 1 day ago
0 DELTA 1 DEB
1 03974U 68069E   24355.20078679 -.00000009  00000-0  22903-3 0  9999
2 03974 101.8643  81.1594 0035645 154.5857 275.1850 12.53264492579102
Epoch: 2024-12-20T04:49Z
Definitive object data (Epoch: 2024-12-20T04:49:07.978Z)
Latitude66.40838°
Longitude-108.99326°
Altitude1,459.754 km
Speed7.14 km/s
True Right ascension03h 30m 14s
True Declination66° 17' 36"
Sunlit
Object was in full shadow at TLE epoch
Visualization TLE readout
Latitude29.99334°
Longitude107.98911°
Altitude1,426.452 km
Speed7.163 km/s
Apparent Right ascension21h 03m 06s
Apparent Declination-2° 08' 04"
Sunlit
Object is in daylight
Visualization observer readout
Local Sidereal Time14:45:57
Azimuth88.886° E
Elevation-4.658°
Doppler factor1
Orbital elements
Apogee altitude1,476.317 km
Perigee altitude1,420.522 km
Semi-major axis7,826.556 km
Eccentricity0.0035645
Inclination101.8643°
RAAN81.1594°
Arg. of periapsis154.5857°
True anomaly274.77805°
Mean anomaly275.185°
Eccentric anomaly274.98154°
Mean motion3.13464 °/min
BSTAR0.00022903
Orbital period114.85 mins
Loading maneuver chart data...
Loading historical data...
Loading historical data...
Loading historical data...
Loading historical data...
Loading historical data...
Loading historical data...
Loading historical data...

DELTA 1 DEB Visibility forecast

Observer location: undefined°, undefined

Span
Click to sort rows by Start time (UTC) header in descending order
Start Az.
Max El. time (UTC)
Max El. Az.
Max El.
End time (UTC)
End Az.
12 mins2024-12-21 17:30:37.270Z45.642° ENE2024-12-21 17:36:37.270Z96.405° ESE22.476°2024-12-21 17:42:37.270Z145.319° SSE
14 mins2024-12-21 19:23:37.270Z10.435° NNE2024-12-21 19:29:37.270Z300.522° NW43.052°2024-12-21 19:37:37.270Z211.536° SW
6 mins2024-12-21 21:18:37.270Z332.344° NNW2024-12-21 21:20:37.270Z316.385° NNW14.924°2024-12-21 21:24:37.270Z284.951° WNW
13 mins2024-12-22 04:29:37.270Z115.822° SE2024-12-22 04:35:37.270Z59.348° ENE30.377°2024-12-22 04:42:37.270Z358.75° N
14 mins2024-12-22 06:21:37.270Z186.064° SSW2024-12-22 06:27:37.270Z247.063° WSW38.616°2024-12-22 06:35:37.270Z332.212° NNW
|